• In Portugal
  • List of Countries
  • For 7 days
  • Water Temperature
  • Satellite Maps
  • Weather Map
  • Weather Widgets
  • user-avatar
    Login

    Hourly Weather Janowiec

    Today, 19 August, Sunday

    Time Temperature Precipitation Wind Pressure Humidity
    00:00 +18°C° 0 mm 1 mps 752 mmHg 74%
    01:00 +18°C° 0 mm 1 mps 752 mmHg 79%
    02:00 +18°C° 0 mm 1 mps 752 mmHg 81%
    03:00 +18°C° 0 mm 1 mps 752 mmHg 83%
    04:00 +18°C° 0 mm 1 mps 752 mmHg 85%
    05:00 +18°C° 0 mm 2 mps 752 mmHg 80%
    06:00 +19°C° 0 mm 2 mps 752 mmHg 76%
    07:00 +20°C° 0 mm 2 mps 752 mmHg 71%
    08:00 +21°C° 0 mm 2 mps 752 mmHg 62%
    09:00 +24°C° 0 mm 2 mps 752 mmHg 54%
    10:00 +26°C° 0 mm 3 mps 752 mmHg 46%
    11:00 +26°C° 0 mm 3 mps 752 mmHg 45%
    12:00 +27°C° 0 mm 3 mps 752 mmHg 43%
    13:00 +28°C° 0 mm 3 mps 752 mmHg 42%
    14:00 +28°C° 0 mm 3 mps 752 mmHg 43%
    15:00 +28°C° 0 mm 3 mps 751 mmHg 44%
    16:00 +28°C° 0 mm 2 mps 751 mmHg 45%
    17:00 +26°C° 0 mm 2 mps 751 mmHg 51%
    18:00 +25°C° 0 mm 1 mps 751 mmHg 57%
    19:00 +23°C° 0 mm 1 mps 750 mmHg 62%
    20:00 +22°C° 0 mm 1 mps 750 mmHg 63%
    21:00 +22°C° 0 mm 1 mps 750 mmHg 65%
    22:00 +21°C° 0 mm 1 mps 750 mmHg 66%
    23:00 +20°C° 0 mm 2 mps 749 mmHg 65%

    Tomorrow, 20 August, Monday

    Time Temperature Precipitation Wind Pressure Humidity
    00:00 +19°C° 0 mm 2 mps 749 mmHg 64%
    01:00 +19°C° 0 mm 2 mps 749 mmHg 63%
    02:00 +19°C° 0 mm 2 mps 749 mmHg 62%
    03:00 +18°C° 0 mm 2 mps 748 mmHg 62%
    04:00 +18°C° 0 mm 2 mps 748 mmHg 62%
    05:00 +19°C° 0 mm 3 mps 748 mmHg 62%
    06:00 +20°C° 0 mm 3 mps 748 mmHg 62%
    07:00 +21°C° 0 mm 3 mps 748 mmHg 63%
    08:00 +22°C° 0 mm 4 mps 748 mmHg 61%
    09:00 +25°C° 0 mm 5 mps 748 mmHg 58%
    10:00 +26°C° 0 mm 5 mps 748 mmHg 56%
    11:00 +26°C° 0.1 mm 5 mps 748 mmHg 58%
    12:00 +25°C° 0.1 mm 5 mps 748 mmHg 60%
    13:00 +25°C° 0.1 mm 5 mps 748 mmHg 62%
    14:00 +25°C° 0.1 mm 5 mps 748 mmHg 66%
    15:00 +23°C° 0.1 mm 5 mps 748 mmHg 69%
    16:00 +22°C° 0.1 mm 5 mps 748 mmHg 72%
    17:00 +21°C° 0.1 mm 5 mps 748 mmHg 72%
    18:00 +20°C° 0.1 mm 5 mps 748 mmHg 71%
    19:00 +19°C° 0.1 mm 4 mps 748 mmHg 71%
    20:00 +18°C° 0 mm 4 mps 748 mmHg 71%
    21:00 +17°C° 0 mm 4 mps 748 mmHg 71%
    22:00 +15°C° 0 mm 4 mps 749 mmHg 71%
    23:00 +15°C° 0 mm 4 mps 749 mmHg 72%

    Day after tomorrow, 21 August, Tuesday

    Time Temperature Precipitation Wind Pressure Humidity
    00:00 +15°C° 0 mm 4 mps 749 mmHg 74%
    01:00 +15°C° 0 mm 4 mps 749 mmHg 75%
    02:00 +14°C° 0 mm 3 mps 750 mmHg 77%
    03:00 +14°C° 0 mm 3 mps 750 mmHg 78%
    04:00 +13°C° 0 mm 3 mps 750 mmHg 80%
    05:00 +16°C° 0 mm 3 mps 751 mmHg 76%
    06:00 +17°C° 0 mm 4 mps 751 mmHg 73%
    07:00 +18°C° 0 mm 4 mps 752 mmHg 69%
    08:00 +19°C° 0 mm 4 mps 752 mmHg 63%
    09:00 +20°C° 0 mm 4 mps 753 mmHg 57%
    10:00 +21°C° 0 mm 4 mps 753 mmHg 51%
    11:00 +22°C° 0 mm 3 mps 753 mmHg 48%
    12:00 +24°C° 0 mm 3 mps 753 mmHg 45%
    13:00 +25°C° 0 mm 3 mps 753 mmHg 42%
    14:00 +24°C° 0 mm 3 mps 753 mmHg 42%
    15:00 +24°C° 0 mm 3 mps 753 mmHg 43%
    16:00 +24°C° 0 mm 3 mps 753 mmHg 44%
    17:00 +23°C° 0 mm 2 mps 753 mmHg 50%
    18:00 +20°C° 0 mm 2 mps 753 mmHg 57%
    19:00 +18°C° 0 mm 2 mps 753 mmHg 64%
    20:00 +17°C° 0 mm 2 mps 753 mmHg 68%
    21:00 +16°C° 0 mm 1 mps 753 mmHg 72%
    22:00 +15°C° 0 mm 1 mps 754 mmHg 76%
    23:00 +15°C° 0 mm 1 mps 754 mmHg 77%

    22 August, Wednesday

    Time Temperature Precipitation Wind Pressure Humidity
    00:00 +15°C° 0 mm 2 mps 754 mmHg 79%
    01:00 +14°C° 0 mm 2 mps 754 mmHg 80%
    02:00 +14°C° 0 mm 2 mps 754 mmHg 81%
    03:00 +14°C° 0 mm 2 mps 754 mmHg 82%
    04:00 +14°C° 0 mm 2 mps 754 mmHg 84%
    05:00 +15°C° 0 mm 2 mps 754 mmHg 79%
    06:00 +16°C° 0 mm 2 mps 754 mmHg 75%
    07:00 +17°C° 0 mm 2 mps 754 mmHg 71%
    08:00 +19°C° 0 mm 2 mps 754 mmHg 63%
    09:00 +21°C° 0 mm 2 mps 754 mmHg 55%
    10:00 +24°C° 0 mm 2 mps 754 mmHg 48%
    11:00 +25°C° 0 mm 2 mps 753 mmHg 44%
    12:00 +26°C° 0 mm 2 mps 753 mmHg 41%
    13:00 +27°C° 0 mm 3 mps 752 mmHg 38%
    14:00 +28°C° 0 mm 3 mps 752 mmHg 38%
    15:00 +28°C° 0 mm 3 mps 751 mmHg 38%
    16:00 +28°C° 0 mm 3 mps 751 mmHg 38%
    17:00 +26°C° 0 mm 2 mps 751 mmHg 44%
    18:00 +24°C° 0 mm 2 mps 751 mmHg 49%
    19:00 +23°C° 0 mm 2 mps 750 mmHg 55%
    20:00 +21°C° 0 mm 2 mps 750 mmHg 56%
    21:00 +21°C° 0 mm 2 mps 750 mmHg 57%
    22:00 +20°C° 0 mm 2 mps 750 mmHg 58%
    23:00 +20°C° 0 mm 3 mps 750 mmHg 58%

    23 August, Thursday

    Time Temperature Precipitation Wind Pressure Humidity
    00:00 +20°C° 0 mm 3 mps 750 mmHg 58%
    01:00 +20°C° 0 mm 3 mps 750 mmHg 58%
    02:00 +20°C° 0 mm 3 mps 749 mmHg 59%
    03:00 +19°C° 0 mm 2 mps 749 mmHg 61%
    04:00 +19°C° 0 mm 2 mps 749 mmHg 63%
    05:00 +19°C° 0 mm 2 mps 749 mmHg 63%
    06:00 +20°C° 0 mm 2 mps 749 mmHg 63%
    07:00 +20°C° 0 mm 2 mps 749 mmHg 63%
    08:00 +21°C° 0 mm 2 mps 749 mmHg 61%
    09:00 +23°C° 0 mm 2 mps 749 mmHg 59%
    10:00 +24°C° 0 mm 2 mps 748 mmHg 57%
    11:00 +25°C° 0 mm 2 mps 748 mmHg 53%
    12:00 +27°C° 0 mm 2 mps 748 mmHg 49%
    13:00 +28°C° 0 mm 2 mps 747 mmHg 45%
    14:00 +28°C° 0 mm 2 mps 747 mmHg 46%
    15:00 +28°C° 0 mm 2 mps 747 mmHg 46%
    16:00 +28°C° 0 mm 2 mps 746 mmHg 47%
    17:00 +27°C° 0 mm 2 mps 746 mmHg 51%
    18:00 +26°C° 0 mm 2 mps 746 mmHg 56%
    19:00 +24°C° 0 mm 2 mps 745 mmHg 60%
    20:00 +24°C° 0 mm 2 mps 745 mmHg 62%
    21:00 +23°C° 0 mm 2 mps 745 mmHg 64%
    22:00 +21°C° 0 mm 2 mps 745 mmHg 66%
    23:00 +21°C° 0 mm 3 mps 744 mmHg 66%

    24 August, Friday

    Time Temperature Precipitation Wind Pressure Humidity
    00:00 +21°C° 0 mm 3 mps 744 mmHg 65%
    01:00 +21°C° 0 mm 3 mps 743 mmHg 65%
    02:00 +21°C° 0 mm 3 mps 743 mmHg 63%
    03:00 +21°C° 0 mm 3 mps 743 mmHg 61%
    04:00 +21°C° 0 mm 3 mps 742 mmHg 59%
    05:00 +21°C° 0.4 mm 3 mps 742 mmHg 62%
    06:00 +21°C° 0.4 mm 3 mps 742 mmHg 64%
    07:00 +21°C° 0.4 mm 3 mps 741 mmHg 67%
    08:00 +24°C° 0.6 mm 3 mps 741 mmHg 65%
    09:00 +25°C° 0.6 mm 3 mps 741 mmHg 63%
    10:00 +27°C° 0.6 mm 2 mps 741 mmHg 60%
    11:00 +27°C° 1.2 mm 3 mps 741 mmHg 60%
    12:00 +27°C° 1.2 mm 3 mps 741 mmHg 61%
    13:00 +27°C° 1.2 mm 4 mps 740 mmHg 61%
    14:00 +26°C° 1.4 mm 4 mps 740 mmHg 68%
    15:00 +23°C° 1.4 mm 4 mps 741 mmHg 75%
    16:00 +21°C° 1.4 mm 4 mps 741 mmHg 82%
    17:00 +19°C° 1.7 mm 4 mps 741 mmHg 84%
    18:00 +18°C° 1.7 mm 4 mps 741 mmHg 86%
    19:00 +15°C° 1.7 mm 4 mps 742 mmHg 88%
    20:00 +16°C° 0.1 mm 3 mps 742 mmHg 89%
    21:00 +14°C° 0.1 mm 3 mps 743 mmHg 90%
    22:00 +14°C° 0.1 mm 3 mps 743 mmHg 91%
    23:00 +14°C° 0 mm 3 mps 744 mmHg 92%
    Show more